Weather History for San Angelo, TX

Change the Weather History Date:

Monday, October 8, 2012

  Actual Average Record
Temperature  
Mean Temperature 54 °F 69 °F  
Max Temperature 71 °F 81 °F 99 °F (1979)
Min Temperature 36 °F 56 °F 36 °F (2012)
Degree Days  
Heating Degree Days 11 1  
Month to date heating degree days 40 8  
Since 1 July heating degree days 42 17  
Cooling Degree Days 0 5  
Month to date cooling degree days 28 47  
Year to date cooling degree days 3072 2412  
Growing Degree Days 4 (Base 50)    
Moisture  
Dew Point 43 °F    
Average Humidity 75    
Maximum Humidity 100    
Minimum Humidity 49    
Precipitation  
Precipitation 0.00 in 0.09 in 2.56 in (2011)
Month to date precipitation 0.01 0.69  
Year to date precipitation 21.30 17.22  
Snow  
Snow 0.00 in 0.00 in 0.00 in (2002)
Month to date snowfall 0.0 0.0  
Since 1 July snowfall 0.0 0.0  
Snow Depth 0.00 in    
Sea Level Pressure  
Sea Level Pressure 30.17 in    
Wind  
Wind Speed 3 mph (SE)    
Max Wind Speed 12 mph    
Max Gust Speed 15 mph    
Visibility 10 miles    
Events      
T = Trace of Precipitation, MM = Missing Value Source: NWS Daily Summary

Daily Weather History Graph

Daily Weather History Graph

Search for Another Location

Airport:

Trip Planner

Search our weather history database for the weather conditions in past years. The results will help you decide how hot, cold, wet, or windy it might be!

Date:

Astronomy

Oct. 08, 2012 Rise Set
Actual Time 7:40 AM CDT 7:17 PM CDT
Civil Twilight 7:16 AM CDT 7:41 PM CDT
Nautical Twilight 6:48 AM CDT 8:10 PM CDT
Astronomical Twilight 6:19 AM CDT 8:38 PM CDT
Moon 12:46 AM CDT (10/8) 2:45 PM CDT (10/8)
Length of Visible Light 12h 25m
Length of Day
11h 37m
Last Quarter, 46% of the Moon is Illuminated
Oct 8
Last Quarter
Oct 15
New
Oct 21
First Quarter
Oct 29
Full
Nov 6
Last Quarter

Hourly Weather History & Observations

Time (CDT) Temp. Windchill Dew Point Humidity Pressure Visibility Wind Dir Wind Speed Gust Speed Precip Events Conditions
12:51 AM 46.9 °F - 37.0 °F 68% 30.24 in 10.0 mi ENE 3.5 mph - N/A   Overcast
1:51 AM 45.0 °F 43.5 °F 39.0 °F 80% 30.24 in 10.0 mi NE 3.5 mph - N/A   Scattered Clouds
3:51 AM 42.1 °F - 37.0 °F 82% 30.22 in 10.0 mi Calm Calm - N/A   Clear
4:51 AM 39.0 °F - 36.0 °F 89% 30.22 in 10.0 mi Calm Calm - N/A   Clear
5:51 AM 37.9 °F - 35.1 °F 89% 30.24 in 10.0 mi Calm Calm - N/A   Clear
6:51 AM 36.0 °F - 35.1 °F 97% 30.25 in 10.0 mi Calm Calm - N/A   Clear
8:27 AM 39.2 °F - 37.4 °F 93% 30.24 in 10.0 mi Calm Calm - N/A   Mostly Cloudy
8:51 AM 41.0 °F - 37.9 °F 89% 30.26 in 10.0 mi Calm Calm - N/A   Overcast
9:51 AM 44.1 °F - 39.0 °F 82% 30.26 in 10.0 mi Calm Calm - N/A   Overcast
10:07 AM 46.4 °F - 39.2 °F 76% 30.24 in 1.8 mi Calm Calm - N/A   Haze
10:15 AM 46.4 °F - 39.2 °F 76% 30.24 in 10.0 mi Calm Calm - N/A   Overcast
10:51 AM 48.0 °F - 39.9 °F 74% 30.25 in 10.0 mi Calm Calm - N/A   Overcast
11:51 AM 50.0 °F - 41.0 °F 71% 30.24 in 10.0 mi Calm Calm - N/A   Overcast
12:51 PM 53.1 °F - 42.1 °F 66% 30.21 in 10.0 mi Calm Calm - N/A   Overcast
1:51 PM 57.0 °F - 44.1 °F 62% 30.17 in 10.0 mi Variable 3.5 mph - N/A   Overcast
2:28 PM 59.0 °F - 44.6 °F 59% 30.13 in 10.0 mi Calm Calm - N/A   Scattered Clouds
2:51 PM 62.1 °F - 45.0 °F 53% 30.11 in 10.0 mi Calm Calm - N/A   Clear
3:51 PM 64.9 °F - 48.0 °F 54% 30.07 in 10.0 mi East 8.1 mph - N/A   Clear
4:51 PM 69.1 °F - 51.1 °F 53% 30.05 in 10.0 mi Variable 6.9 mph - N/A   Clear
5:51 PM 71.1 °F - 51.1 °F 49% 30.02 in 10.0 mi South 6.9 mph - N/A   Clear
8:51 PM 60.1 °F - 52.0 °F 75% 30.03 in 10.0 mi Calm Calm - N/A   Clear
9:51 PM 55.9 °F - 51.1 °F 84% 30.03 in 10.0 mi South 4.6 mph - N/A   Clear
10:51 PM 60.1 °F - 53.1 °F 78% 30.03 in 10.0 mi South 8.1 mph - N/A   Clear
11:51 PM 57.9 °F - 52.0 °F 81% 30.02 in 10.0 mi SSW 4.6 mph - N/A   Clear